Regional Weather Roundup
Issued by NWS

Home | Current Version | Previous Version | Graphics & Text | Print | Product List | Glossary On
Versions: 1 2 3 4 5 6 7 8 9 10 11 12 13 14 15 16 17 18 19 20 21 22 23 24 25 26 27 28 29 30 31 32 33 34 35 36 37 38 39 40 41 42 43 44 45 46 47 48 49 50
000
ASUS43 KMKX 010700
RWRWI

WISCONSIN REGIONAL WEATHER ROUNDUP
NATIONAL WEATHER SERVICE MILWAUKEE/SULLIVAN WI
200 AM CDT WED JUN 01 2016

NOTE: "FAIR" INDICATES FEW OR NO CLOUDS BELOW 12,000 FEET WITH NO
SIGNIFICANT WEATHER AND/OR OBSTRUCTIONS TO VISIBILITY.

WIZ001-002-006>008-014>016-023>028-010800-
NORTHWEST WISCONSIN

CITY           SKY/WX    TMP DP  RH WIND       PRES   REMARKS
SUPERIOR ARPT  FOG       41  41 100 NE6       29.85F VSB 1
ASHLAND        CLOUDY    48  47  96 CALM      29.84F
HAYWARD        PTCLDY    60  58  92 S6        29.85F
SIREN          CLEAR     61  59  94 S6        29.83S
CUMBERLAND     CLOUDY    59  59 100 S6        29.86S
RICE LAKE      PTCLDY    61  59  92 S6        29.87F
CHETEK         CLOUDY    61  61  99 S6        29.87S
LADYSMITH      CLOUDY    62  60  95 S6        29.90S
EAU CLAIRE     NOT AVBL
MENOMONIE      CLOUDY    63  62  99 S7        29.87F
NEW RICHMOND   CLEAR     60  59  99 S8        29.84F
OSCEOLA        CLEAR     60  60 100 S8        29.86S
$$

WIZ003>005-009-010-017-018-010800-
NORTH CENTRAL WISCONSIN

CITY           SKY/WX    TMP DP  RH WIND       PRES   REMARKS
MANITOWISH WTR RAIN      59  59 100 S8        29.88S
ARBOR VITAE    CLOUDY    60  59  94 S9        29.89F
WOODRUFF       CLOUDY    60  59  94 S9        29.89F
RHINELANDER    LGT RAIN  59  57  93 S7        29.91F
EAGLE RIVER    RAIN      57  56  97 CALM      29.91S
LAND O LAKES   LGT RAIN  57  56  94 SE7       29.91F
PHILLIPS       CLOUDY    60  60 100 S7        29.88S
TOMAHAWK       CLOUDY    59  58  96 S3        29.91S FOG
MEDFORD        CLOUDY    60  60 100 S9        29.91R
MERRILL        NOT AVBL
$$

WIZ029-030-035-036-043>047-010800-
CENTRAL WISCONSIN

CITY           SKY/WX    TMP DP  RH WIND       PRES   REMARKS
WAUSAU         CLOUDY    62  59  90 S6        29.90S
MOSINEE        CLOUDY    59  59 100 SE6       29.93S
MARSHFIELD     CLOUDY    62  60  93 S9        29.90F
STEVENS POINT  LGT RAIN  60  60  99 SE5       29.93S
WAUPACA        RAIN      64  64  99 SE6       29.94F
WAUTOMA        NOT AVBL
WISC RAPIDS    NOT AVBL
CAMP DOUGLAS   CLOUDY    63  63 100 S7        29.91S
$$

WIZ011>013-019>022-031-037>040-048>050-010800-
NORTHEAST WISCONSIN

CITY           SKY/WX    TMP DP  RH WIND       PRES   REMARKS
ANTIGO         LGT RAIN  56  56 100 SE12      29.93F
SHAWANO        CLOUDY    61  55  81 S5        29.95S
OCONTO         CLOUDY   N/A N/A N/A CALM      29.94F
STURGEON BAY   CLOUDY    59  50  72 S7        29.95S
GREEN BAY      CLOUDY    60  54  80 SW6       29.96R
MANITOWOC      NOT AVBL
APPLETON       CLOUDY    59  55  88 S6        29.94S
CLINTONVILLE   RAIN      59  55  88 S6        29.94F
OSHKOSH        CLOUDY    62  58  86 SE3       29.94F
$$

WIZ032>034-041-042-053>061-010800-
SOUTHWEST WISCONSIN

CITY           SKY/WX    TMP DP  RH WIND       PRES   REMARKS
LA CROSSE      CLOUDY    65  62  90 S7        29.90S
SPARTA         CLOUDY    62  61  99 CALM      29.92S
VIROQUA        CLOUDY    62  62 100 S6        29.93S
BOSCOBEL       NOT AVBL
PRAIRIE DU CHI CLOUDY    63  62  96 CALM      29.92S
PLATTEVILLE    CLOUDY    64  64  99 SE9       29.93F
$$

WIZ056-057-062-063-064-067-068-010800-
SOUTH CENTRAL WISCONSIN

CITY           SKY/WX    TMP DP  RH WIND       PRES   REMARKS
REEDSBURG      RAIN      62  62 100 CALM      29.93S
BARABOO/DELLS  TSTM      62  60  93 S5        29.93F
LONE ROCK      NOT AVBL
MINERAL POINT  RAIN      64  63  94 S5        29.93F
MADISON        TSTM      64  62  93 NW3       29.93F FOG
MIDDLETON      CLOUDY    64  64 100 CALM      29.94F
WATERTOWN      CLOUDY    64  63  99 CALM      29.92F
MONROE         CLOUDY    63  61  94 W10       29.94R
JANESVILLE     PTCLDY    66  61  82 S6        29.91F
$$

WIZ051-052-058>065-066-070>072-010800-
SOUTHEAST WISCONSIN

CITY           SKY/WX    TMP DP  RH WIND       PRES   REMARKS
MILWAUKEE      CLOUDY    62  57  83 S7        29.94F
WAUKESHA       CLOUDY    61  57  88 SE7       29.96F
MILWAUKEE/TIMM CLOUDY    61  54  77 SE5       29.95F
RACINE         CLOUDY    61  55  81 S9        29.97F
BURLINGTON     CLOUDY    63  60  90 SE7       29.95S
KENOSHA        LGT RAIN  62  57  83 S9        29.96S
FOND DU LAC    CLOUDY    61  58  90 CALM      29.95R
SHEBOYGAN      CLOUDY    58  52  80 SW3       29.95S
WEST BEND      DRIZZLE   59  54  82 SE3       29.95F
JUNEAU         LGT RAIN  62  60  93 NW3       29.95S
$$

LSZ147-162-010800-
LAKE SUPERIOR

STATION/POSITION TIME  TEMP    WIND        PRES    WAVE
                       AIR SEA DIR/SP/G            HT/PER
                 (UTC) (F)     (DEG/KT/KT) (MB)    (FT/S)
W MID LAKE BUOY  0550   45 38  110/ 10/ 12 1011.4F   3/ 5
DEVILS ISLAND    0600   41      40/  9/ 10 1011.4F
PORT WING        0600   41      30/  5/  6 1011.5F
SAXON HARBOR     0600   50      CALM  /  2 1010.5F
$$

LMZ867-665-643>646-010800-
LAKE MICHIGAN

STATION/POSITION TIME  TEMP    WIND        PRES    WAVE
                       AIR SEA DIR/SP/G            HT/PER
                 (UTC) (F)     (DEG/KT/KT) (MB)    (FT/S)
CHAMBERS ISLAND  0600   61     100/  1/  3 1013.9S
N MID LAKE BUOY  0550   53 48  150/  8/  8 1014.7S   2/ 4
NORTHPORT PIER   0600   56     150/  8/ 11 1013.5F
SISTER BAY       0605   59     160/  7/  9   N/A
ALGOMA LAKESHORE 0617             CALM       N/A
KEWAUNEE LAKESHO 0600   56     180/  2/  3 1013.8F
SHEBOYGAN LAKESH 0600   59     180/  3/  4 1014.8F
PORT WASHINGTON  0640   56     260/  3/  4 1014.9F
S MID LAKE BUOY  0550   59 54  110/ 10/ 10 1014.1F   1/ 4
KENOSHA   LAKESH 0600   58     170/ 12/ 13 1014.6
$$

TC  - TEMPERATURE IN CELSIUS
VSB - VISIBILITY IN STATUTE MILES
WCI - WIND CHILL INDEX
HX  - HEAT INDEX




USA.gov is the U.S. government's official web portal to all federal, state and local government web resources and services.